GFSNE_sfc_wetblb_021.txt.gz
Wetbulb
32.96 32.13 30.78 31.13 30.80 33.23 33.44 35.09 32.70 27.44 27.66 30.90 30.17 35.21 35.87 37.13 37.63 35.96 40.15 42.94 41.96 41.87 41.69 42.41 44.39 44.42 45.28 45.39 47.26 49.58 52.18 54.14 54.86 54.95 54.12 52.78 51.55 51.22
31.01 28.86 28.38 29.46 29.46 29.47 28.85 29.91 31.43 31.21 27.45 30.66 31.54 32.39 32.88 34.73 35.61 33.30 34.57 41.54 41.95 40.94 40.95 41.13 41.24 42.78 44.06 44.07 44.36 45.68 49.05 51.38 51.60 51.57 50.75 50.10 49.72 49.74
28.48 27.97 28.06 28.44 27.20 26.92 27.34 27.56 27.71 28.51 26.25 28.52 30.57 31.11 29.61 29.86 31.12 32.26 32.84 32.66 37.48 41.64 40.86 40.17 40.14 41.35 41.81 42.77 43.35 43.31 44.19 47.10 48.32 49.33 49.69 49.84 49.88 49.86
27.59 27.21 27.18 28.98 25.76 25.59 25.66 25.50 25.94 27.22 26.38 24.80 27.01 26.98 27.52 29.64 29.36 28.95 32.38 34.62 32.52 37.54 39.08 40.68 40.04 40.45 40.89 41.13 41.79 42.29 42.37 42.50 43.39 44.55 45.24 45.39 45.66 45.78
27.08 26.59 26.49 25.81 24.06 23.90 24.49 24.72 25.60 27.92 27.02 26.07 26.16 26.17 26.35 26.79 26.83 27.55 28.74 28.98 32.30 34.88 35.84 37.95 40.62 40.77 40.53 41.13 41.37 41.91 41.82 41.60 40.96 41.17 41.49 42.11 42.92 43.67
27.37 27.06 26.32 25.54 23.79 23.72 24.28 23.97 26.94 26.30 26.75 26.80 26.10 25.54 25.66 26.43 26.05 25.25 25.17 26.68 26.54 30.59 32.05 35.64 36.26 38.55 41.06 40.93 40.69 41.11 41.85 41.80 41.29 40.54 39.41 38.50 39.11 40.48
26.86 26.83 26.59 27.35 29.76 28.03 25.47 23.99 23.59 23.90 26.09 26.80 26.11 25.95 25.76 23.92 22.96 24.53 23.96 23.95 24.54 26.00 27.02 30.17 31.42 33.09 34.55 36.68 39.61 41.33 41.26 41.51 41.19 40.52 39.74 38.47 37.91 38.52
25.65 25.91 25.65 26.94 26.69 27.59 27.50 28.01 27.31 24.73 23.93 24.09 24.07 24.37 25.43 22.97 22.96 22.95 22.69 21.34 20.80 25.76 25.56 24.83 28.84 29.38 31.74 32.89 36.32 37.79 39.41 40.31 40.52 40.48 39.83 38.90 38.42 38.02
24.41 24.13 23.84 25.19 25.19 24.57 26.06 27.05 27.08 28.52 27.59 25.86 24.12 24.37 24.69 25.61 24.35 23.01 22.11 21.96 21.63 24.47 24.80 22.06 22.98 26.57 29.98 31.53 34.19 35.91 37.73 38.50 38.89 39.00 38.65 37.98 37.43 37.02
22.88 22.76 22.72 22.96 24.17 24.96 25.64 26.39 24.90 26.88 27.01 27.29 27.63 26.52 25.95 26.60 25.93 26.02 24.73 24.87 24.48 25.56 26.11 24.97 20.59 22.23 24.84 27.86 33.06 35.35 36.97 37.44 37.95 37.70 37.69 37.03 36.70 36.27
23.01 22.91 23.50 23.32 25.63 28.17 26.77 25.03 24.49 25.78 27.93 28.57 28.60 28.79 29.61 29.69 30.35 28.10 26.24 25.29 23.32 24.17 24.93 23.61 21.58 20.83 21.92 23.40 27.37 34.25 35.77 36.51 37.17 37.54 37.64 37.26 36.77 36.16
21.88 22.60 24.15 24.73 26.75 26.73 25.17 23.84 22.41 23.57 24.78 24.52 24.26 25.82 26.60 25.89 27.01 26.03 24.22 22.90 21.89 18.13 23.61 23.43 24.44 21.62 16.92 20.30 21.82 24.50 24.54 33.89 35.49 36.34 37.39 37.67 37.33 32.31
21.23 21.34 22.99 25.44 25.98 26.41 26.23 25.08 25.15 25.42 26.01 25.66 25.11 24.66 24.24 24.54 24.88 25.27 25.00 23.52 21.69 21.15 24.25 24.83 21.57 20.88 20.45 20.62 20.32 21.97 23.21 22.58 23.79 27.03 35.20 36.66 37.21 35.33
20.97 21.77 23.11 24.65 24.87 24.98 24.69 25.78 25.44 24.45 23.75 23.18 23.63 23.72 24.04 24.48 26.29 27.19 27.52 26.53 27.10 25.91 27.69 27.38 22.55 23.50 21.53 19.76 19.65 22.08 20.50 19.97 20.78 21.42 22.38 29.24 34.31 35.85
20.06 22.21 23.08 22.92 22.53 22.75 23.56 23.94 22.98 22.25 21.70 20.85 21.47 23.02 25.33 27.16 29.04 29.28 29.49 29.89 30.01 30.35 29.62 28.49 27.91 25.72 24.27 21.74 21.69 19.16 21.08 21.26 18.07 19.74 26.00 23.73 23.67 25.50
17.71 17.36 18.19 20.63 18.70 19.52 20.03 20.73 21.03 21.57 21.31 20.76 21.44 23.75 25.77 26.46 26.72 28.45 27.74 28.76 28.96 28.57 30.68 30.72 29.68 29.30 26.83 27.98 27.70 24.92 25.34 24.91 23.41 23.93 27.78 21.19 23.19 27.63
10.46 9.82 13.66 15.08 14.76 16.36 17.11 17.49 18.59 18.89 18.19 19.30 19.84 20.42 22.20 24.25 25.71 26.69 26.68 26.06 22.67 25.77 26.91 28.88 30.98 31.48 31.18 30.03 27.59 28.56 27.02 27.48 26.60 23.10 27.07 22.42 21.53 24.01
11.29 5.02 2.70 6.11 12.31 14.58 13.93 14.55 15.25 15.00 16.16 17.18 17.71 18.55 19.13 21.23 22.91 24.32 23.80 23.70 22.94 23.88 23.94 25.33 28.71 28.59 28.94 29.58 31.97 28.96 28.09 28.31 27.88 27.78 26.16 26.79 26.22 24.03
5.79 3.18 -0.91 4.88 7.23 13.97 13.84 13.53 12.57 12.23 13.79 14.55 15.07 15.27 16.69 18.95 20.94 21.11 21.17 22.18 22.36 23.43 22.13 19.77 24.35 26.83 25.47 23.04 24.03 28.30 23.75 27.70 24.65 27.12 26.84 27.87 25.02 22.19
7.77 4.09 2.17 3.44 6.85 11.79 13.08 12.12 11.59 9.90 9.05 9.92 11.77 12.35 13.25 15.44 17.32 19.26 19.30 15.67 17.69 19.36 20.10 20.14 19.13 18.48 17.68 17.45 17.17 17.42 27.50 23.44 25.80 22.56 20.08 18.86 20.70 27.15
7.17 7.92 2.63 5.61 5.36 6.95 2.89 7.15 7.08 6.74 5.79 4.97 7.57 9.16 10.63 13.04 15.27 16.75 16.57 14.44 13.56 17.58 16.28 16.19 17.27 20.07 19.90 14.92 12.81 10.76 12.63 25.14 21.89 18.39 16.20 19.47 20.80 23.35
3.47 7.34 7.66 6.20 1.75 1.56 -2.73 -2.91 4.76 5.86 6.56 6.33 5.13 5.43 6.65 9.71 13.32 14.20 15.11 11.34 11.91 10.38 14.92 17.87 20.35 22.93 17.39 18.41 13.68 13.50 18.12 20.53 21.35 25.17 25.62 22.49 15.78 16.86
3.30 5.37 2.55 -0.96 -0.23 -0.97 3.67 -1.46 -0.73 -1.66 5.15 5.79 5.81 6.23 4.91 5.94 10.66 10.72 11.63 11.73 13.20 12.72 13.35 15.41 17.84 18.48 19.89 18.88 14.32 16.17 13.10 11.64 21.28 16.40 14.30 24.77 26.73 26.98

GFSNE_sfc_wetblb_024.txt.gz
Wetbulb
32.52 31.55 29.12 29.76 30.02 30.34 30.19 30.11 27.90 22.44 23.79 28.50 31.32 35.53 36.54 37.69 37.73 36.99 35.68 38.81 42.23 42.25 41.61 41.80 42.26 43.13 44.29 45.10 45.88 45.92 47.49 52.27 54.78 54.88 55.61 55.46 54.68 54.13
30.78 28.97 28.30 28.68 28.70 28.78 27.73 27.86 27.99 25.77 22.38 28.50 30.15 32.43 34.45 35.83 36.57 36.85 34.26 37.24 37.18 40.12 41.31 40.91 40.63 41.59 42.17 42.61 43.80 44.72 45.15 45.41 53.30 53.56 54.21 53.34 52.17 52.07
28.68 27.99 27.97 27.93 27.29 26.84 26.67 26.19 25.52 25.74 22.87 25.50 28.88 30.80 31.18 31.65 32.94 33.49 34.10 33.70 34.74 36.71 39.14 41.18 39.75 40.29 40.66 40.91 41.51 42.44 42.98 43.76 46.84 51.62 51.56 51.76 51.44 51.33
27.46 27.38 27.08 28.75 26.30 25.83 25.27 24.56 24.63 25.40 24.43 23.00 26.53 27.52 28.66 30.90 30.72 30.22 32.08 33.57 33.33 35.88 36.24 37.29 40.15 39.88 39.85 39.86 40.92 41.41 42.12 42.08 42.01 45.84 49.11 50.03 50.82 51.13
27.11 26.78 26.62 26.48 25.30 24.76 24.27 23.95 24.68 25.65 25.88 26.66 25.37 28.47 28.64 28.95 29.03 29.29 29.28 30.72 32.46 34.22 34.18 35.06 36.93 39.07 40.39 39.75 39.73 41.09 41.73 41.72 41.02 40.85 41.13 42.76 45.26 46.41
27.59 27.23 26.91 26.31 25.31 24.85 24.82 25.03 24.52 24.02 24.36 23.70 23.89 26.22 27.34 28.57 27.79 27.37 26.77 28.69 28.57 30.87 31.76 32.63 35.54 36.39 39.13 40.62 40.03 40.82 41.04 41.61 41.11 40.52 39.64 38.90 39.31 41.60
27.40 27.51 27.34 27.79 29.29 28.05 25.87 24.90 24.17 23.48 24.08 24.08 23.10 24.72 25.38 26.40 25.93 27.58 26.64 26.43 26.93 27.91 28.19 29.82 31.61 31.99 34.76 36.26 40.51 41.03 40.28 40.43 41.23 40.89 40.15 38.82 38.42 39.21
24.37 24.42 24.78 25.49 25.55 26.83 26.61 26.91 26.54 24.33 23.92 24.09 23.23 22.48 23.39 25.41 26.83 26.39 25.40 23.70 22.91 27.71 28.01 26.91 29.88 30.51 32.04 33.52 34.74 36.02 38.76 40.53 40.56 40.87 40.15 38.92 38.39 38.10
22.60 22.20 22.53 24.20 24.49 24.02 25.31 26.51 26.84 27.88 27.18 25.64 25.03 24.00 24.87 25.89 26.63 25.51 25.17 24.18 23.66 26.53 26.96 25.65 27.19 28.61 31.64 31.89 33.71 34.87 36.08 37.96 39.46 39.75 39.62 38.48 37.96 37.11
22.60 22.32 22.24 22.39 23.97 25.00 26.00 25.79 25.45 26.27 26.54 27.13 26.67 26.19 27.32 28.08 28.01 27.02 26.32 26.30 26.40 26.86 27.62 24.53 27.32 27.67 29.29 30.00 32.45 34.42 35.85 36.62 37.91 38.50 38.49 38.02 37.21 36.73
22.81 23.10 23.38 23.30 25.19 27.92 25.54 24.50 24.36 25.30 27.96 29.29 29.19 29.01 28.90 28.78 29.12 28.59 25.74 25.38 23.51 25.25 27.07 26.59 25.59 26.45 26.86 28.55 30.69 32.67 34.95 36.12 36.63 37.63 37.65 37.65 37.08 36.40
22.47 22.95 23.82 23.98 25.75 26.14 24.88 23.18 22.19 23.60 24.38 25.96 26.88 26.88 27.33 27.09 27.34 26.25 25.59 23.49 25.00 21.62 25.70 25.44 25.37 25.31 23.68 25.76 26.92 28.64 30.70 33.40 35.46 36.38 37.26 37.89 37.43 36.76
21.27 20.58 22.22 24.41 25.13 25.13 25.30 23.89 23.95 24.47 24.24 24.20 24.86 25.61 26.62 26.52 25.96 26.05 25.74 24.26 22.89 23.00 25.48 26.36 24.49 23.81 24.68 24.72 26.58 27.81 28.27 29.48 31.46 32.86 35.30 36.32 37.05 36.82
19.01 20.07 20.98 23.64 23.17 23.25 23.14 24.30 24.02 22.78 22.01 21.92 22.24 22.98 24.37 25.56 27.33 28.41 27.12 26.51 26.32 25.25 27.24 28.06 25.57 25.43 25.13 23.61 24.62 27.87 28.11 28.06 29.27 30.21 30.20 31.22 35.05 36.34
19.07 20.23 21.60 21.32 20.67 20.96 21.53 21.94 21.27 20.46 20.20 19.51 20.13 21.42 23.65 25.91 27.86 29.02 30.22 29.22 28.68 28.55 28.74 29.79 27.64 26.48 26.57 24.80 24.95 25.33 27.59 28.17 26.00 28.52 29.28 28.95 31.43 30.68
16.45 15.14 15.47 19.07 14.91 16.48 18.29 18.74 18.47 18.57 18.38 18.16 18.96 20.53 23.23 24.73 26.19 28.05 27.41 29.02 28.28 29.53 31.23 30.65 29.44 28.92 26.42 27.23 27.64 26.81 27.04 28.37 28.20 28.15 28.99 29.03 30.90 32.11
8.82 7.93 10.21 11.38 13.22 15.15 15.63 16.19 16.31 15.36 15.45 16.61 17.16 17.93 19.71 21.41 23.74 26.23 26.07 26.29 25.18 26.18 26.55 29.22 30.39 30.71 30.29 29.23 27.46 28.62 27.64 28.35 29.35 28.74 28.51 28.71 29.93 31.29
11.09 4.09 -0.59 -1.32 4.81 12.03 13.32 13.25 13.55 12.19 12.67 14.82 15.53 16.19 16.61 18.21 20.79 23.03 23.68 24.08 24.05 24.26 24.37 25.75 29.17 28.92 29.28 30.19 32.22 29.40 29.11 28.77 29.71 29.60 28.59 28.45 28.69 29.96
6.72 3.98 -3.13 -3.86 0.68 10.30 11.87 12.46 11.85 11.37 11.92 11.51 12.69 13.50 14.75 16.52 18.54 20.15 20.56 20.33 20.90 22.43 23.17 24.68 25.57 26.91 25.38 23.70 25.29 29.03 27.27 28.53 28.34 28.52 28.86 28.46 27.90 29.61
8.44 5.21 2.45 2.49 6.57 9.44 10.11 9.80 10.64 9.58 8.43 8.39 9.36 9.78 11.42 13.77 15.78 16.73 17.36 15.69 17.44 19.85 20.68 22.57 22.63 22.81 23.32 23.39 23.55 24.91 27.12 26.13 27.45 25.82 25.56 25.83 26.31 26.57
7.98 8.91 4.83 6.72 7.68 7.84 1.01 -0.23 -2.40 5.85 6.81 5.19 6.20 7.21 6.93 10.63 13.67 14.91 15.23 11.96 13.11 16.90 16.51 18.21 20.54 21.86 22.95 22.26 21.45 21.94 23.36 25.01 24.92 23.98 22.85 23.28 23.36 25.24
6.77 8.80 9.42 8.39 5.37 4.46 -1.32 -5.31 -0.23 -1.01 5.05 6.83 6.40 5.82 6.00 7.19 10.11 11.43 12.66 12.90 14.12 14.60 15.10 18.57 21.41 23.00 22.36 21.97 19.99 19.93 20.77 21.88 22.63 25.23 25.30 24.45 23.97 22.44
6.80 7.82 6.76 3.19 2.63 1.61 5.37 1.01 0.43 -3.86 0.29 4.02 5.82 7.21 6.89 6.79 9.33 9.85 10.10 11.67 13.16 13.26 13.98 15.61 17.56 19.46 20.72 20.60 18.84 20.30 19.65 19.62 22.25 22.77 23.21 25.11 26.77 26.92

GFSNE_sfc_wetblb_030.txt.gz
Wetbulb
41.23 40.96 39.27 39.46 39.01 38.02 38.63 36.72 33.08 29.34 30.75 34.97 34.94 38.79 38.92 39.18 38.87 39.23 39.40 39.54 39.55 40.26 39.45 38.60 39.12 40.71 42.48 42.44 43.02 43.98 45.26 46.78 47.25 48.77 49.26 51.11 54.87 57.79
41.22 39.81 39.38 38.85 38.31 39.00 38.20 37.27 35.87 33.03 30.93 34.38 35.17 36.85 37.67 37.33 37.97 37.99 38.42 38.35 37.80 38.19 38.97 38.14 38.54 39.44 41.51 42.01 42.08 42.68 43.70 44.71 45.69 45.55 47.44 48.98 51.44 56.04
39.81 38.68 38.74 39.28 38.17 37.80 37.57 36.50 34.94 34.23 30.42 32.97 34.75 36.01 35.40 35.30 36.03 36.87 37.13 38.35 39.31 39.02 38.88 38.00 37.69 37.38 38.06 40.53 41.24 41.57 42.10 42.89 44.04 43.81 44.57 46.54 50.33 53.65
38.71 38.47 37.74 37.49 37.00 36.95 36.11 34.87 33.91 33.41 30.42 28.45 31.78 32.01 32.40 33.84 34.20 34.48 35.42 36.57 37.70 38.34 37.44 36.39 36.18 36.59 36.87 38.12 40.11 40.91 41.28 41.86 42.19 41.74 41.82 42.37 45.06 52.92
38.10 37.47 36.57 35.98 34.55 34.65 34.14 33.12 31.86 31.16 31.28 29.74 28.78 30.77 31.59 33.15 32.38 33.65 33.85 34.78 36.64 38.01 37.17 36.51 36.82 36.09 35.70 36.77 37.86 39.95 41.01 41.50 41.52 40.81 40.31 40.09 40.50 47.42
37.28 36.18 34.64 33.37 32.54 31.87 31.25 31.45 30.43 29.33 29.72 28.56 28.04 27.65 29.23 31.06 32.24 30.83 30.66 33.66 34.09 36.51 37.35 35.86 35.95 36.95 36.03 36.51 37.91 38.81 40.77 41.25 41.68 40.43 39.44 38.79 38.56 40.97
35.07 33.94 33.48 31.16 28.54 28.71 28.93 28.94 28.13 27.27 26.88 26.67 27.12 27.75 27.98 29.01 28.18 30.87 29.57 31.47 33.02 34.90 34.98 36.63 36.84 37.40 38.68 36.13 37.56 39.00 38.80 40.96 41.13 40.61 38.91 38.72 38.75 39.13
32.40 32.56 32.67 30.65 30.40 28.02 28.06 27.76 28.01 27.06 26.91 26.73 26.68 25.76 27.16 28.51 29.91 29.26 29.09 28.35 26.94 34.93 34.00 34.41 36.44 35.83 36.41 38.33 34.61 34.92 35.59 37.15 40.57 40.57 39.03 38.14 38.74 38.57
31.84 31.43 30.80 30.87 30.00 29.36 28.01 27.97 29.09 28.60 28.14 28.55 26.06 26.67 28.02 29.42 29.68 28.84 28.90 28.82 28.73 32.56 32.51 30.22 34.81 33.90 35.76 36.91 35.18 34.07 34.88 35.77 37.86 39.89 39.86 38.20 37.93 38.08
31.48 31.17 30.81 30.18 29.84 27.32 26.69 26.89 28.53 28.99 29.40 28.81 28.84 29.05 29.44 30.37 30.32 30.56 30.03 29.80 30.95 32.23 32.93 27.98 32.82 32.57 35.42 36.13 35.49 34.09 34.44 34.51 35.60 38.34 39.21 38.91 38.05 37.87
31.08 31.19 29.48 28.46 26.62 26.17 25.73 25.42 26.74 28.10 29.51 28.48 28.47 28.61 28.89 29.51 30.37 30.25 28.03 27.23 26.94 28.29 32.71 30.71 31.72 31.30 32.78 35.04 36.68 34.80 34.11 34.04 34.78 36.17 38.74 38.95 38.53 37.90
30.69 30.15 27.27 25.81 24.09 24.94 24.61 24.51 23.93 25.66 26.09 26.78 27.78 29.64 30.55 31.16 29.96 30.87 29.77 26.52 26.15 26.61 31.48 29.89 30.32 30.23 29.24 34.81 36.11 37.31 37.32 33.94 33.98 35.64 37.06 39.20 38.84 40.36
28.54 28.80 28.73 24.71 23.94 23.74 23.20 24.78 24.12 24.51 24.83 25.95 26.22 28.43 29.85 30.48 30.80 31.88 32.50 30.49 27.84 27.20 31.96 31.80 30.52 30.13 29.93 30.39 34.59 36.00 37.13 37.50 38.06 38.00 35.32 37.49 37.48 39.39
27.02 28.67 27.48 23.51 23.01 22.29 23.04 21.87 22.33 23.33 25.38 24.92 25.33 25.39 26.66 27.42 29.31 31.04 32.63 32.99 33.22 31.73 33.46 33.38 30.16 30.08 29.02 28.15 29.43 34.86 35.29 37.39 38.02 37.81 39.24 37.80 36.55 37.25
28.04 25.98 22.85 22.19 22.51 23.32 22.25 21.79 22.25 24.39 23.73 23.42 23.45 24.19 25.83 27.95 30.16 31.39 32.36 34.25 33.71 34.02 32.93 32.93 31.50 30.41 31.14 30.22 29.99 31.57 32.90 34.57 36.86 37.37 38.00 38.19 38.49 38.72
27.59 27.16 24.55 21.61 22.92 22.77 24.86 24.74 24.58 23.32 22.20 22.93 23.11 24.75 26.42 27.49 28.25 29.87 29.48 31.32 32.73 33.05 33.80 33.99 33.35 32.07 30.72 31.43 31.43 31.13 33.38 31.65 35.31 35.38 36.04 37.00 38.12 38.88
24.42 26.40 26.39 25.28 24.29 24.62 24.77 24.16 24.46 23.15 21.78 22.54 23.09 23.63 24.08 24.90 26.12 28.70 28.78 29.26 29.27 29.33 30.72 33.03 33.78 33.62 32.95 32.60 30.47 30.82 32.00 32.94 34.71 34.52 34.23 34.15 36.27 37.68
24.73 25.84 25.57 25.36 23.98 23.58 23.16 23.07 23.69 22.17 21.36 20.82 22.06 22.68 22.48 23.06 23.88 26.30 27.05 26.99 27.34 28.09 28.98 30.63 32.91 30.68 30.74 31.68 30.81 32.06 32.73 33.02 34.07 34.28 34.06 33.02 33.48 36.61
24.94 26.62 25.93 25.45 24.81 24.14 23.64 22.96 22.10 22.32 20.97 21.14 20.57 21.67 22.16 22.27 23.46 23.79 24.90 24.83 25.38 26.63 28.17 30.14 30.49 29.78 28.07 26.76 30.29 29.11 32.93 33.08 33.58 32.86 33.46 32.85 32.69 35.45
25.15 26.05 25.84 25.84 24.99 24.23 23.85 23.00 22.45 22.28 21.82 20.90 21.01 20.55 20.86 21.33 22.52 22.26 22.78 22.26 23.10 24.99 26.18 28.65 28.55 26.91 26.12 26.50 29.85 29.99 28.18 32.87 32.93 32.31 32.44 33.83 33.78 29.12
27.28 27.29 27.20 26.36 26.02 25.19 24.79 23.69 22.20 21.82 20.37 20.33 20.96 20.38 20.85 20.11 20.55 21.58 22.42 21.56 22.10 23.81 23.11 24.24 26.23 27.40 29.21 30.92 29.42 29.41 29.43 27.59 29.35 31.51 32.12 31.56 30.94 31.30
28.04 27.66 27.93 27.55 26.65 26.13 25.29 24.46 23.41 22.95 22.17 21.15 20.63 20.99 21.31 21.17 19.88 19.77 21.35 21.30 22.05 22.12 23.05 24.88 26.96 27.88 29.31 27.87 27.37 27.12 28.82 29.76 27.44 27.12 27.46 26.90 29.15 29.45
28.66 28.02 28.64 27.73 27.01 26.26 25.27 24.51 23.36 22.96 22.21 20.66 20.38 20.40 19.92 19.85 20.52 20.66 19.99 20.88 21.14 20.94 22.18 23.21 25.52 27.28 27.60 26.47 25.86 28.43 27.70 28.28 29.05 28.66 28.87 26.18 27.54 27.71

GFSNE_sfc_wetblb_033.txt.gz
Wetbulb
43.75 43.09 41.93 41.55 41.30 40.34 39.18 37.72 34.73 30.75 31.50 35.77 36.34 39.76 40.55 40.58 40.55 40.54 40.13 39.39 39.25 39.20 38.81 38.95 38.96 40.26 40.09 40.68 41.39 42.45 43.21 43.85 44.87 46.26 47.84 48.60 50.46 51.27
43.10 41.81 41.22 40.40 39.79 39.77 38.97 38.79 37.44 34.53 30.98 35.61 36.63 37.96 38.63 37.63 38.76 39.05 38.81 39.26 38.47 38.31 38.76 38.52 39.13 39.67 39.39 39.50 40.37 41.28 42.13 42.83 43.46 44.37 46.17 46.60 48.26 49.76
41.54 40.76 39.54 39.87 38.61 38.98 39.01 38.28 37.16 36.23 32.77 35.16 36.24 36.70 35.79 35.55 36.33 37.34 37.75 37.88 38.24 38.15 37.92 39.13 39.39 39.12 38.22 37.91 38.31 39.08 40.37 41.43 42.13 43.17 44.07 45.13 45.89 47.78
39.01 38.67 37.83 38.25 37.46 37.39 37.04 35.34 35.39 35.15 33.55 30.30 32.57 32.85 33.09 34.32 35.19 34.60 35.68 35.79 36.88 37.58 38.00 38.01 38.10 38.08 37.94 37.67 37.35 38.11 39.23 40.10 41.36 41.90 42.43 42.80 42.56 44.24
38.63 37.95 37.23 36.52 35.08 34.95 34.37 33.37 33.28 33.08 32.92 30.38 29.46 31.87 32.46 33.49 32.87 33.77 34.07 34.93 35.63 36.96 37.38 37.54 37.59 37.90 38.21 37.49 37.03 36.87 38.72 39.20 40.77 41.42 41.46 40.57 40.32 41.01
38.11 37.27 36.05 34.94 33.70 32.29 30.89 30.98 31.09 29.94 29.44 28.36 28.21 28.89 30.59 32.23 31.91 31.06 30.71 33.75 33.21 34.98 35.95 36.10 37.32 37.44 37.55 37.21 37.17 37.26 37.77 39.04 40.46 41.16 40.35 39.05 38.59 39.25
36.77 36.02 35.48 33.07 30.66 30.22 29.54 29.13 28.34 27.28 26.90 26.61 26.51 27.71 28.14 28.67 28.70 30.54 29.79 31.09 32.50 34.35 34.12 35.17 36.15 37.27 38.05 37.64 37.22 37.64 36.09 37.14 38.30 40.79 40.35 38.97 38.63 38.33
34.26 34.47 34.54 34.08 33.12 30.95 30.45 28.88 28.69 26.44 26.33 27.02 26.21 25.80 26.31 28.00 29.84 29.26 29.46 28.54 26.70 34.78 32.32 32.48 35.04 35.19 36.85 37.54 36.10 35.62 35.15 36.04 36.63 39.91 40.41 38.84 38.57 37.77
34.09 33.26 32.76 33.05 31.93 31.51 30.19 29.18 28.84 29.74 28.64 28.70 26.93 27.10 27.13 28.46 29.20 27.91 28.19 28.18 28.27 31.50 31.54 29.75 33.94 33.15 35.59 36.51 36.27 35.48 34.61 35.05 35.86 36.53 39.68 38.24 37.72 37.20
33.86 33.21 32.29 31.84 30.48 27.29 27.10 27.15 28.07 28.96 29.78 29.77 28.99 28.13 28.41 29.03 28.78 28.85 28.87 29.42 30.54 31.54 32.68 27.73 32.99 32.37 35.26 36.29 36.66 36.49 35.37 34.91 35.34 35.45 37.41 38.83 37.53 37.62
33.23 32.94 31.86 30.40 27.54 26.00 25.11 24.67 25.50 27.27 30.17 30.12 28.95 29.16 29.85 30.37 30.47 30.05 28.26 27.48 27.04 28.10 31.90 29.83 31.61 31.96 33.80 34.73 36.71 36.58 35.64 34.95 35.44 35.43 35.90 38.88 38.10 36.78
32.37 32.02 29.15 26.83 24.89 24.70 24.17 23.66 22.75 25.44 25.70 25.80 26.70 28.73 30.19 30.85 30.82 30.73 30.32 27.71 27.32 26.87 30.98 28.75 30.09 30.52 28.53 34.66 35.53 36.95 36.91 34.44 35.11 35.94 35.84 38.12 38.74 38.74
29.41 29.91 30.94 26.67 25.02 24.04 23.95 23.68 23.88 23.83 23.96 25.35 26.77 27.64 28.80 29.56 30.11 31.41 31.72 30.87 28.77 28.50 32.20 31.11 29.61 30.04 29.70 29.85 33.25 35.77 37.29 37.17 36.00 36.46 35.80 36.80 39.11 39.57
28.33 29.86 29.93 26.09 24.22 23.82 24.09 24.19 23.31 23.49 26.61 25.73 25.60 25.70 26.13 26.94 28.45 30.63 32.43 33.04 33.88 32.24 33.84 33.13 30.22 29.81 28.79 28.41 28.43 33.93 35.79 37.81 38.09 37.37 37.45 37.89 37.21 37.07
29.57 28.90 25.98 25.75 24.83 25.31 25.29 24.10 23.61 25.91 24.20 23.70 23.48 24.12 25.96 27.97 29.46 30.81 31.92 32.97 33.22 35.18 33.80 33.86 32.79 31.36 30.47 28.94 28.88 31.60 31.93 35.16 37.73 37.60 38.48 37.48 38.03 38.36
29.14 29.77 27.62 26.25 25.70 24.84 26.05 27.65 27.02 26.33 23.69 23.27 23.24 24.97 26.91 27.20 27.46 29.17 29.12 30.15 30.81 31.71 34.02 34.45 33.46 32.83 30.47 30.84 30.72 30.69 32.91 31.53 35.59 36.43 37.65 38.63 37.96 38.83
26.69 27.78 27.89 28.00 26.93 27.23 27.27 26.91 26.82 26.18 24.53 23.66 23.01 23.54 24.30 24.77 25.52 27.94 27.92 28.64 27.63 28.20 29.83 32.11 33.84 33.37 33.20 31.54 30.20 31.35 31.83 32.75 34.81 35.17 34.80 33.62 35.50 38.34
26.15 26.29 27.13 27.68 26.62 25.81 25.90 25.76 26.13 25.04 24.41 23.27 23.28 22.87 22.40 22.83 23.71 25.71 26.44 26.17 25.49 26.83 27.97 30.47 31.93 30.80 30.51 31.77 31.51 30.59 32.52 32.50 34.39 34.45 34.08 32.81 33.33 36.77
24.97 26.30 27.59 27.89 27.05 26.16 26.47 25.93 24.87 24.99 23.72 24.01 23.18 23.16 22.25 22.16 23.39 24.09 24.22 24.46 23.93 25.10 27.15 29.95 29.55 26.99 25.98 26.11 29.18 29.60 29.88 33.53 33.34 32.86 33.66 33.75 32.73 33.71
26.49 26.74 26.99 27.91 27.22 26.61 26.74 26.11 25.50 25.00 24.56 23.30 22.85 23.04 22.81 22.00 21.46 21.69 22.90 22.84 22.60 24.06 25.24 27.13 26.87 25.59 24.57 25.14 28.96 28.77 29.16 32.17 31.99 31.81 32.11 33.86 31.91 29.65
27.91 28.33 29.96 29.00 27.84 27.43 27.75 26.41 25.38 24.19 23.73 22.79 22.97 22.53 22.75 22.32 21.80 21.10 21.80 22.20 22.47 23.09 22.05 23.33 26.03 28.09 29.34 31.08 28.91 28.74 29.37 28.55 29.41 29.84 31.81 31.38 30.61 31.20
29.29 28.63 29.59 29.83 29.43 28.40 27.99 27.26 25.90 25.13 24.43 23.80 23.36 23.03 22.95 22.53 21.89 21.37 21.00 20.24 21.37 21.48 22.05 24.71 27.41 28.50 29.24 28.17 27.63 27.35 28.53 29.24 28.32 27.98 28.01 27.79 28.44 27.58
30.59 29.84 30.48 30.71 30.15 28.96 27.24 26.46 25.61 25.23 24.44 23.65 23.09 22.70 21.87 20.93 22.59 22.50 22.03 21.34 20.77 20.49 21.14 22.40 25.24 27.36 27.91 26.65 25.83 28.07 27.37 27.88 28.33 28.16 27.53 27.58 28.10 28.37